TimeCDT,TemperatureF,Dew PointF,Humidity,Sea Level PressureIn,VisibilityMPH,Wind Direction,Wind SpeedMPH,Gust SpeedMPH,PrecipitationIn,Events,Conditions,WindDirDegrees,DateUTC
12:54 AM,43.0,39.0,86,30.09,10.0,SSW,5.8,-,N/A,,Clear,200,2013-10-22 05:54:00
1:54 AM,42.1,37.9,85,30.07,10.0,SSW,5.8,-,N/A,,Clear,200,2013-10-22 06:54:00
2:54 AM,44.1,39.0,82,30.06,10.0,SSW,6.9,-,N/A,,Clear,200,2013-10-22 07:54:00
3:54 AM,44.1,39.0,82,30.05,10.0,SSW,8.1,-,N/A,,Mostly Cloudy,210,2013-10-22 08:54:00
4:54 AM,46.9,39.9,77,30.03,10.0,SW,11.5,-,N/A,,Overcast,220,2013-10-22 09:54:00
5:54 AM,48.0,39.9,74,30.03,10.0,WSW,9.2,-,N/A,,Overcast,240,2013-10-22 10:54:00
6:54 AM,46.9,39.0,74,30.03,10.0,SW,6.9,-,N/A,,Mostly Cloudy,220,2013-10-22 11:54:00
7:54 AM,44.1,37.9,79,30.04,10.0,SW,4.6,-,N/A,,Partly Cloudy,220,2013-10-22 12:54:00
8:54 AM,48.0,41.0,77,30.05,10.0,SW,5.8,-,N/A,,Clear,230,2013-10-22 13:54:00
9:54 AM,55.0,42.1,62,30.05,10.0,West,8.1,-,N/A,,Clear,260,2013-10-22 14:54:00
10:54 AM,62.1,43.0,50,30.05,10.0,NW,10.4,-,N/A,,Clear,320,2013-10-22 15:54:00
11:54 AM,66.9,44.1,44,30.04,10.0,NW,13.8,17.3,N/A,,Clear,320,2013-10-22 16:54:00
12:54 PM,70.0,42.1,36,30.04,10.0,NNW,21.9,27.6,N/A,,Clear,340,2013-10-22 17:54:00
1:54 PM,71.1,42.1,35,30.01,10.0,NW,19.6,25.3,N/A,,Clear,320,2013-10-22 18:54:00
2:54 PM,73.0,43.0,34,29.99,10.0,WNW,16.1,24.2,N/A,,Clear,290,2013-10-22 19:54:00
3:54 PM,72.0,41.0,33,30.00,10.0,WNW,20.7,26.5,N/A,,Clear,300,2013-10-22 20:54:00
4:54 PM,72.0,41.0,33,30.00,10.0,NNW,20.7,27.6,N/A,,Partly Cloudy,330,2013-10-22 21:54:00
5:54 PM,68.0,41.0,37,30.01,10.0,NNW,19.6,26.5,N/A,,Clear,330,2013-10-22 22:54:00
6:54 PM,59.0,42.1,53,30.03,10.0,NNW,5.8,-,N/A,,Clear,330,2013-10-22 23:54:00
7:54 PM,55.0,41.0,59,30.06,10.0,North,5.8,-,N/A,,Clear,10,2013-10-23 00:54:00
8:54 PM,55.9,42.1,60,30.06,10.0,NNE,5.8,-,N/A,,Clear,20,2013-10-23 01:54:00
9:54 PM,51.1,41.0,68,30.07,10.0,Calm,Calm,-,N/A,,Clear,0,2013-10-23 02:54:00
10:54 PM,48.9,41.0,74,30.09,10.0,Calm,Calm,-,N/A,,Clear,0,2013-10-23 03:54:00
11:54 PM,46.0,41.0,83,30.11,10.0,NNE,4.6,-,N/A,,Clear,20,2013-10-23 04:54:00